This is the latest recevied weather packets stored in our database for station/object SV5DDT-12. If no packets are shown the sender has not sent any weather packets the latest 10 day(s).
| Time | Temp. | Humidity | Pressure | Rain* | Wind** | Luminosity | Snow |
|---|---|---|---|---|---|---|---|
| 1777493675 | 22.78° C | 62% | 1015.9 hPa | - | - | - | - |
| 1777492775 | 22.78° C | 62% | 1016 hPa | - | - | - | - |
| 1777491875 | 22.78° C | 61% | 1015.9 hPa | - | - | - | - |
| 1777490975 | 22.78° C | 62% | 1015.9 hPa | - | - | - | - |
| 1777490075 | 23.33° C | 62% | 1015.9 hPa | - | - | - | - |
| 1777489174 | 23.33° C | 61% | 1015.9 hPa | - | - | - | - |
| 1777488274 | 23.33° C | 63% | 1016 hPa | - | - | - | - |
| 1777487374 | 23.33° C | 63% | 1015.8 hPa | - | - | - | - |
| 1777486496 | 23.33° C | 62% | 1015.6 hPa | - | - | - | - |
| 1777485598 | 23.33° C | 59% | 1015.5 hPa | - | - | - | - |
| 1777484696 | 23.33° C | 57% | 1015.3 hPa | - | - | - | - |
| 1777483796 | 23.33° C | 58% | 1015.2 hPa | - | - | - | - |
| 1777482896 | 23.33° C | 58% | 1015.1 hPa | - | - | - | - |
| 1777481995 | 23.33° C | 59% | 1014.9 hPa | - | - | - | - |
| 1777481095 | 23.33° C | 58% | 1014.8 hPa | - | - | - | - |
| 1777480195 | 23.33° C | 55% | 1014.6 hPa | - | - | - | - |
| 1777479295 | 23.33° C | 55% | 1014.5 hPa | - | - | - | - |
| 1777478395 | 23.33° C | 56% | 1014.4 hPa | - | - | - | - |
| 1777477495 | 23.33° C | 59% | 1014.5 hPa | - | - | - | - |
| 1777476595 | 23.33° C | 58% | 1014.6 hPa | - | - | - | - |
| 1777475695 | 23.33° C | 57% | 1014.7 hPa | - | - | - | - |
| 1777474794 | 23.33° C | 58% | 1014.6 hPa | - | - | - | - |
| 1777473894 | 23.33° C | 56% | 1014.6 hPa | - | - | - | - |
| 1777472994 | 23.33° C | 49% | 1014.7 hPa | - | - | - | - |
| 1777472094 | 23.33° C | 46% | 1014.6 hPa | - | - | - | - |
* Rain since midnight (hover to see other rain measurements)
** Current wind speed in m/s (hover to see current wind gust speed)